UAL247 KLAX-KEWR

Flight info

Callsign UAL247
Flight time N/A
Altitude 39000
Route ORCKA5 LAS J146 DVC HBU MCK OVR DSM EVOTE NELLS KEEHO J584 SLT FQM3
Aircraft A21N/M-SDE2E3FGHIRWXY/LB1

Departure

Time 2026-05-07 19:19
Airport Los Angeles International Airport (KLAX)

Arrival

Time N/A
Airport Newark Liberty International Airport (KEWR)
Time Latitude Longitude Altitude Speed Heading
2026-05-07 18:56 33.94204 -118.40026 96 ft 0 kts 70°
2026-05-07 19:04 33.94201 -118.40038 102 ft 4 kts 70°
2026-05-07 19:04 33.94194 -118.40062 96 ft 4 kts 73°
2026-05-07 19:04 33.94195 -118.40085 95 ft 4 kts 144°
2026-05-07 19:04 33.94214 -118.40094 96 ft 2 kts 173°
2026-05-07 19:05 33.94216 -118.40094 96 ft 0 kts 173°
2026-05-07 19:10 33.94208 -118.40093 97 ft 3 kts 173°
2026-05-07 19:10 33.94177 -118.40088 97 ft 6 kts 173°
2026-05-07 19:10 33.94122 -118.40080 97 ft 9 kts 173°
2026-05-07 19:10 33.94047 -118.40069 97 ft 12 kts 173°
2026-05-07 19:11 33.93954 -118.40055 99 ft 14 kts 173°
2026-05-07 19:11 33.93869 -118.40071 101 ft 8 kts 239°
2026-05-07 19:11 33.93866 -118.40126 102 ft 8 kts 264°
2026-05-07 19:11 33.93858 -118.40206 99 ft 11 kts 263°
2026-05-07 19:12 33.93848 -118.40311 99 ft 14 kts 263°
2026-05-07 19:12 33.93834 -118.40435 98 ft 16 kts 264°
2026-05-07 19:12 33.93819 -118.40578 97 ft 18 kts 263°
2026-05-07 19:12 33.93803 -118.40740 97 ft 21 kts 264°
2026-05-07 19:13 33.93785 -118.40918 97 ft 18 kts 263°
2026-05-07 19:13 33.93769 -118.41069 96 ft 19 kts 263°
2026-05-07 19:13 33.93798 -118.41151 97 ft 6 kts 346°
2026-05-07 19:13 33.93850 -118.41159 98 ft 9 kts 353°
2026-05-07 19:14 33.93925 -118.41170 97 ft 12 kts 353°
2026-05-07 19:14 33.94021 -118.41184 96 ft 15 kts 353°
2026-05-07 19:14 33.94137 -118.41201 96 ft 18 kts 353°
2026-05-07 19:14 33.94271 -118.41221 96 ft 21 kts 353°
2026-05-07 19:15 33.94422 -118.41245 97 ft 23 kts 353°
2026-05-07 19:15 33.94561 -118.41264 96 ft 18 kts 353°
2026-05-07 19:15 33.94694 -118.41284 97 ft 20 kts 352°
2026-05-07 19:15 33.94799 -118.41226 97 ft 19 kts 80°
2026-05-07 19:16 33.94816 -118.41060 98 ft 21 kts 83°
2026-05-07 19:16 33.94834 -118.40875 98 ft 24 kts 83°
2026-05-07 19:16 33.94856 -118.40665 97 ft 27 kts 83°
2026-05-07 19:16 33.94875 -118.40488 98 ft 14 kts 82°
2026-05-07 19:17 33.94888 -118.40362 97 ft 17 kts 83°
2026-05-07 19:17 33.94903 -118.40212 99 ft 19 kts 83°
2026-05-07 19:17 33.94921 -118.40037 96 ft 23 kts 83°
2026-05-07 19:17 33.94965 -118.39919 97 ft 15 kts 24°
2026-05-07 19:18 33.95040 -118.39949 98 ft 8 kts 284°
2026-05-07 19:18 33.95051 -118.40040 99 ft 31 kts 288°
2026-05-07 19:18 33.95061 -118.40136 101 ft 3 kts 224°
2026-05-07 19:18 33.95017 -118.40208 104 ft 6 kts 251°
2026-05-07 19:19 33.95002 -118.40352 101 ft 47 kts 263°
2026-05-07 19:19 33.94929 -118.41057 100 ft 125 kts 263°
2026-05-07 19:19 33.94795 -118.42346 259 ft 173 kts 263°
2026-05-07 19:19 33.94626 -118.43873 780 ft 186 kts 261°
2026-05-07 19:20 33.94473 -118.45364 1826 ft 175 kts 263°
2026-05-07 19:20 33.94315 -118.46890 2571 ft 196 kts 264°
2026-05-07 19:20 33.94085 -118.48657 2968 ft 230 kts 255°
2026-05-07 19:20 33.93205 -118.50381 3456 ft 258 kts 224°
2026-05-07 19:21 33.91608 -118.51467 4234 ft 270 kts 199°
2026-05-07 19:21 33.89780 -118.52010 4804 ft 271 kts 192°
2026-05-07 19:21 33.87917 -118.52424 5374 ft 273 kts 191°
2026-05-07 19:21 33.86051 -118.52724 5948 ft 275 kts 181°
2026-05-07 19:22 33.84139 -118.52468 6536 ft 279 kts 168°
2026-05-07 19:22 33.82304 -118.51693 7101 ft 284 kts 151°
2026-05-07 19:22 33.80799 -118.50146 8074 ft 287 kts 125°
2026-05-07 19:22 33.80034 -118.47963 9203 ft 285 kts 96°
2026-05-07 19:23 33.80239 -118.45635 10351 ft 283 kts 68°
2026-05-07 19:23 33.81333 -118.43609 11049 ft 301 kts 46°
2026-05-07 19:23 33.82907 -118.41836 11784 ft 316 kts 41°
2026-05-07 19:23 33.84580 -118.40090 12773 ft 322 kts 41°
2026-05-07 19:24 33.86281 -118.38298 13841 ft 326 kts 41°
2026-05-07 19:24 33.87990 -118.36470 14782 ft 330 kts 42°